Location: Franzen
(48.6167°N, 15.3833°E)
Time: 08:19:56
(UTC+00:00)

Altair - Pass Details

Date: 02 August 2021
Orbit: 1501 x 1682 km, 47.2° (Epoch: 20 September)

Event Time Altitude Azimuth Distance (km) Brightness Sun altitude
Rises 07:45:28 0° 288° (WNW) 4,642 9.5 39.4°
Reaches altitude 10° 07:49:22 10° 274° (W) 3,654 9.1 40.0°
Maximum altitude 07:55:44 22° 229° (SW) 2,857 8.9 40.9°
Drops below altitude 10° 08:02:10 10° 184° (S) 3,677 9.8 41.9°
Sets 08:06:08 0° 170° (S) 4,678 10.4 42.5°
